Portada
METAR-TAF:

METAR-TAF

Aeroports :

Riberalta, Bolívia

latitud: 11-00S, longitud: 066-07W, altitud: 141 m

Observació

L'informe es va fer fa 1 hora i 19 minuts, a les 20:00 UTC
Vent 5 kt del Sud/Sud-Oest
Temperatura 26°C
Humitat 89%
Pressió 1010 hPa
Visibilitat 10 km o més
Núvols disperses a una alçada de 1500 ft
Escasses núvols a una alçada de 2000 ft, Cumulonimbus.
Cel ennuvolat a una alçada de 7000 ft
Cel ennuvolat a una alçada de 20000 ft

METAR: SLRI 052000Z 20005KT 9999 SCT015 FEW020CB BKN070 BKN200 26/24 Q1010

Hora: 17:19 (21:19 UTC)


TAF: manca

Observacions i pronòstics meteorològics de més de 4000 aeroports (METAR i TAF).

Les estacions disponibles són els punts grocs i vermells al mapa.

Posi el ratolí al punt desitjat per veure el nom de l'estació.

Feu clic per veure les observacions i els pronòstics meteorològics.

Per canviar el mapa: feu clic els botons verds amb una creu de color negre per apropar; al botó verd amb un guió per allunyar la imatge; o en les fletxes verdes per a mapes adjacents.


METAR-TAF: